Little Rock, AR

11:27 AM CDT on October 23, 2019 (GMT -0500)
Adams

Weather History for KLIT - September, 2019

Change the Weather History Date:

Saturday, September 21, 2019

  Actual Average Record
Temperature  
Mean Temperature 79 °F 73 °F  
Max Temperature 87 °F 84 °F 100 °F (2005)
Min Temperature 71 °F 62 °F 46 °F (1962)
Degree Days  
Heating Degree Days 0 0  
Month to date heating degree days 0 0  
Since 1 July heating degree days 0 0  
Cooling Degree Days 14 8  
Month to date cooling degree days 372 251  
Year to date cooling degree days 2029 2052  
Growing Degree Days 30 (Base 50)    
Moisture  
Dew Point 67 °F    
Average Humidity 67    
Maximum Humidity 93    
Minimum Humidity 40    
Precipitation  
Precipitation 0.00 in 0.09 in 1.89 in (1898)
Month to date precipitation 1.34 2.14  
Year to date precipitation 47.60 33.55  
Snow  
Snow 0.00 in 0.00 in - ()
Month to date snowfall 0.0 0.0  
Since 1 July snowfall 0.0 0.0  
Since 1 September snowfall 0.0 0.0  
Snow Depth 0.00 in    
Sea Level Pressure  
Sea Level Pressure 30.12 in    
Wind  
Wind Speed 6 mph (SSE)    
Max Wind Speed 18 mph    
Max Gust Speed 24 mph    
Visibility 10 miles    
Events      
T = Trace of Precipitation, MM = Missing Value Source: NWS Daily Summary

Daily Weather History Graph

Daily Weather History Graph

Search for Another Location

Airport or City:

Astronomy

Sep. 21, 2019 Rise Set
Actual Time 6:56 AM CDT 7:07 PM CDT
Civil Twilight 6:30 AM CDT 7:32 PM CDT
Nautical Twilight 6:01 AM CDT 8:01 PM CDT
Astronomical Twilight 5:31 AM CDT 8:31 PM CDT
Moon No Moon Rise 1:47 PM CDT (9/21)
Length of Visible Light 13h 01m
Length of Day
12h 11m
Waning Gibbous, 54% of the Moon is Illuminated
Sep 21
Waning Gibbous
Sep 21
Last Quarter
Sep 28
New
Oct 5
First Quarter
Oct 13
Full

Hourly Weather History & Observations

Time (CDT) Temp. Heat Index Dew Point Humidity Pressure Visibility Wind Dir Wind Speed Gust Speed Precip Events Conditions
12:53 AM 73.0 °F - 69.1 °F 87% 30.12 in 10.0 mi SSE 4.6 mph - N/A   Scattered Clouds
1:53 AM 72.0 °F - 69.1 °F 91% 30.12 in 10.0 mi SSW 3.5 mph - N/A   Partly Cloudy
2:53 AM 73.0 °F - 69.1 °F 87% 30.12 in 10.0 mi SE 3.5 mph - N/A   Overcast
3:53 AM 73.0 °F - 69.1 °F 87% 30.12 in 10.0 mi Calm Calm - N/A   Mostly Cloudy
4:53 AM 72.0 °F - 69.1 °F 91% 30.12 in 10.0 mi SE 3.5 mph - N/A   Mostly Cloudy
6:53 AM 72.0 °F - 69.1 °F 91% 30.16 in 10.0 mi South 6.9 mph - N/A   Mostly Cloudy
8:53 AM 75.0 °F - 70.0 °F 84% 30.19 in 10.0 mi South 8.1 mph - N/A   Overcast
9:53 AM 78.1 °F - 70.0 °F 76% 30.19 in 10.0 mi South 9.2 mph - N/A   Mostly Cloudy
10:53 AM 81.0 °F 84.4 °F 70.0 °F 69% 30.18 in 10.0 mi South 5.8 mph - N/A   Mostly Cloudy
11:53 AM 84.0 °F 86.5 °F 66.9 °F 56% 30.18 in 10.0 mi South 12.7 mph - N/A   Mostly Cloudy
12:53 PM 84.0 °F 85.8 °F 64.9 °F 53% 30.16 in 10.0 mi South 13.8 mph - N/A   Mostly Cloudy
1:53 PM 86.0 °F 88.2 °F 66.0 °F 51% 30.14 in 10.0 mi South 11.5 mph - N/A   Mostly Cloudy
2:53 PM 87.1 °F 89.2 °F 66.0 °F 49% 30.11 in 10.0 mi SSE 9.2 mph - N/A   Mostly Cloudy
3:53 PM 87.1 °F 88.3 °F 64.0 °F 46% 30.09 in 10.0 mi SE 11.5 mph - N/A   Scattered Clouds
4:53 PM 87.1 °F 87.0 °F 61.0 °F 41% 30.08 in 10.0 mi SSE 12.7 mph - N/A   Scattered Clouds
5:53 PM 84.9 °F 86.1 °F 64.0 °F 49% 30.07 in 10.0 mi SSE 8.1 mph - N/A   Partly Cloudy
6:53 PM 81.0 °F 82.7 °F 64.9 °F 58% 30.06 in 10.0 mi SSE 5.8 mph - N/A   Partly Cloudy
7:53 PM 77.0 °F - 66.9 °F 71% 30.07 in 10.0 mi SSE 4.6 mph - N/A   Partly Cloudy
8:53 PM 75.9 °F - 66.9 °F 74% 30.07 in 10.0 mi Calm Calm - N/A   Clear
9:53 PM 72.0 °F - 66.9 °F 84% 30.08 in 10.0 mi SE 4.6 mph - N/A   Clear
10:53 PM 73.0 °F - 66.9 °F 81% 30.07 in 10.0 mi SSE 4.6 mph - N/A   Clear
11:53 PM 72.0 °F - 66.0 °F 81% 30.07 in 10.0 mi SSE 4.6 mph - N/A   Clear